This demonstration page uses our WeatherBlox Daily Observations layout. Learn more.

Left ArrowRight Arrow

38.20091, -84.87328

Hourly Observations for July 26, 2020

Temp ( °F °C ) Dew Point ( °F °C ) Humidity (%) Winds ( mph kmh ) Pressure ( in mb ) Visibility ( mi km ) Precip ( " mm )
12:53 am 00:53 Mostly Clear 77 25 71 21.7 82 82 Calm 30.10 1019 10 16 0.00 0.00
1:53 am 01:53 Clear 75 23.9 71 21.7 88 88 Calm 30.09 1019 10 16 0.00 0.00
2:53 am 02:53 Clear 74 23.3 70 21.1 88 88 Calm 30.09 1019 10 16 0.00 0.00
3:53 am 03:53 Clear 73 22.8 70 21.1 90 90 Calm 30.10 1019 10 16 0.00 0.00
4:53 am 04:53 Clear 72 22.2 69 20.6 91 91 SW 3 6 30.09 1019 9 14 0.00 0.00
5:53 am 05:53 Mostly Clear 72 22.2 70 21.1 94 94 S 3 6 30.10 1019 10 16 0.00 0.00
6:53 am 06:53 Sunny 72 22.2 69 20.6 91 91 Calm 30.11 1020 10 16 0.00 0.00
7:53 am 07:53 Sunny 74 23.3 71 21.7 91 91 SW 3 6 30.11 1020 10 16 0.00 0.00
8:53 am 08:53 Sunny 79 26.1 73 22.8 82 82 SW 3 6 30.12 1020 10 16 0.00 0.00
9:53 am 09:53 Sunny 83 28.3 73 22.8 72 72 SW 7 11 30.12 1020 10 16 0.00 0.00
10:53 am 10:53 Mostly Sunny 86 30 74 23.3 67 67 VRB 7 11 30.12 1020 10 16 0.00 0.00
11:53 am 11:53 Mostly Cloudy 84 28.9 73 22.8 70 70 WSW 6 9 30.12 1020 10 16 0.00 0.00
12:53 pm 12:53 Mostly Sunny 89 31.7 73 22.8 59 59 WSW 7 11 30.11 1020 10 16 0.00 0.00
1:53 pm 13:53 Partly Cloudy 89 31.7 71 21.7 55 55 W 6 9 30.09 1019 10 16 0.00 0.00
2:53 pm 14:53 Sunny 88 31.1 72 22.2 59 59 W 7 11 30.07 1018 10 16 0.00 0.00
3:53 pm 15:53 Partly Cloudy 85 29.4 69 20.6 59 59 W 8 13 30.07 1018 10 16 0.00 0.00
4:53 pm 16:53 Partly Cloudy 83 28.3 68 20 61 61 VRB 7 11 30.04 1017 10 16 0.00 0.00
5:53 pm 17:53 Sunny 89 31.7 65 18.3 45 45 WSW 9 15 30.04 1017 10 16 0.00 0.00
6:53 pm 18:53 Sunny 89 31.7 71 21.7 55 55 W 8 13 30.03 1017 10 16 0.00 0.00
7:53 pm 19:53 Sunny 83 28.3 71 21.7 67 67 SW 10 17 30.04 1017 10 16 0.00 0.00
8:53 pm 20:53 Sunny 79 26.1 71 21.7 77 77 SW 8 13 30.04 1017 10 16 0.00 0.00
9:53 pm 21:53 Clear 76 24.4 70 21.1 82 82 SSW 5 7 30.04 1017 10 16 0.00 0.00
10:53 pm 22:53 Clear 75 23.9 69 20.6 82 82 SSW 7 11 30.05 1018 10 16 0.00 0.00
11:53 pm 23:53 Clear 73 22.8 69 20.6 87 87 SW 5 7 30.05 1018 10 16 0.00 0.00

Powered by AerisWeather